Location: Ferintosh
(52.7647°N, 112.9692°W)
Time: 22:59:46
(UTC+00:00)

A-11 Canister half - Pass Details

Date: 25 May 2024
Orbit: 1524 x 1683 km, 47.3° (Epoch: 20 June)

Event Time Altitude Azimuth Distance (km) Brightness Sun altitude
Rises 03:53:31 0° 218° (SW) 4,672 11.5 -2.7°
Reaches altitude 10° 03:56:47 10° 211° (SSW) 3,701 10.9 -3.1°
Maximum altitude 04:05:08 39° 147° (SSE) 2,196 9.4 -4.0°
Drops below altitude 10° 04:13:44 10° 83° (E) 3,806 10.7 -5.0°
Sets 04:17:07 0° 76° (ENE) 4,816 11.3 -5.3°
